Location: Bienfait
(49.1431°N, 102.8077°W)
Time: 14:43:23
(UTC+00:00)

Envisat - Pass Details

Date: 04 February 2022
Orbit: 764 x 765 km, 98.2° (Epoch: 15 May)

Event Time Altitude Azimuth Distance (km) Brightness Sun altitude
Rises 12:02:37 0° 12° (NNE) 3,244 6.4 -22.3°
Reaches altitude 10° 12:04:56 10° 12° (NNE) 2,314 5.6 -21.9°
Maximum altitude 12:10:02 79° 287° (WNW) 786 2.8 -21.1°
Drops below altitude 10° 12:15:06 10° 201° (SSW) 2,298 5.3 -20.3°
Sets 12:17:23 0° 200° (SSW) 3,221 6.1 -19.9°
